Theta_e
314 314 314 314 314 312 312 315 314 315 316 313 312 314 317 320 318 321 331 325 316 324 333 331 327 328 328 326 327 326 326 327 326 327 329 328 328 328 329 330 330 330 331 332 334 336 337 340 344 347 349 349 349 350 349 349 348 347 348 347 347 348 347 348 349 348 348 348 348 348 347 347 347 346 346 345 344 344 343 343 343 343 343 343 343 343 343
314 314 314 314 314 313 314 315 314 315 315 313 312 312 314 316 316 318 320 317 318 326 329 328 327 326 325 324 325 325 325 326 325 326 327 327 328 327 328 328 328 329 330 330 332 333 335 336 339 342 346 349 350 349 349 350 349 349 349 348 348 348 348 348 349 349 349 349 348 348 348 347 347 346 346 345 344 344 343 343 343 343 343 343 343 343 342
314 314 315 314 314 315 314 315 315 315 314 315 314 312 313 314 315 316 314 315 324 327 326 328 327 325 324 323 324 324 324 324 325 325 325 326 327 327 327 327 327 327 328 329 330 332 333 335 337 338 341 345 350 351 350 350 350 350 350 350 349 349 348 349 349 349 350 349 349 349 348 348 348 347 347 346 345 344 343 342 342 342 343 343 343 343 343
315 314 314 315 316 315 313 314 315 314 314 315 315 318 322 322 321 320 318 322 332 330 325 327 327 324 324 324 323 324 324 323 323 324 324 324 325 326 326 326 327 327 326 328 329 330 332 334 335 336 338 341 345 348 351 351 351 351 351 351 351 350 350 350 350 350 350 350 350 350 349 349 348 348 347 346 346 345 344 343 342 342 342 342 342 343 343
320 316 316 317 314 312 313 315 313 313 315 316 319 326 330 327 326 327 326 328 330 327 325 326 326 325 325 324 323 324 324 324 323 322 322 323 323 324 325 325 326 326 326 328 329 329 331 333 334 335 337 338 340 343 348 351 352 352 352 352 352 352 351 351 351 351 351 351 351 351 351 350 350 349 348 347 347 346 345 344 343 342 342 341 341 341 341
320 319 320 318 311 311 315 314 310 311 316 320 326 331 329 326 326 328 328 327 325 325 325 324 323 325 325 324 323 323 324 324 323 322 322 321 322 323 323 324 325 325 326 327 328 328 330 332 333 334 335 337 338 342 346 349 351 353 353 353 353 353 353 352 352 352 352 352 352 352 352 351 351 350 349 348 348 347 346 345 344 343 342 341 341 341 340
318 321 322 317 313 313 314 311 311 315 319 322 327 329 324 322 325 325 325 325 324 324 325 323 322 324 325 323 322 320 322 324 324 322 321 321 321 321 322 323 324 325 326 326 327 328 329 330 331 333 335 336 338 342 346 348 350 351 353 354 354 354 354 353 353 353 353 352 352 352 353 352 352 351 351 350 349 349 348 347 346 345 344 343 342 341 341
318 319 318 314 313 314 315 317 319 321 323 323 325 327 324 321 321 322 323 324 324 323 323 322 322 322 323 324 324 320 319 321 323 323 322 321 320 320 321 322 323 324 325 325 326 328 328 329 330 332 334 335 337 342 345 347 349 350 350 351 353 354 355 354 354 353 353 352 353 353 353 353 352 352 352 351 351 350 349 348 348 347 345 345 344 343 342
318 318 317 316 315 315 319 324 323 320 320 321 321 325 325 320 318 320 321 321 322 321 321 321 320 320 323 327 326 320 318 319 321 322 322 321 320 321 321 322 322 323 324 325 326 327 327 328 330 331 332 334 337 341 344 346 348 350 349 349 350 350 352 353 354 353 353 353 353 354 354 354 354 353 353 353 352 351 351 350 349 349 348 347 346 345 344
318 317 317 319 318 318 319 321 320 318 317 317 318 322 324 319 316 317 319 320 320 320 320 320 320 322 326 328 324 319 318 318 318 319 320 320 321 321 321 321 322 323 323 324 326 326 326 327 329 330 332 334 337 341 344 345 346 348 350 349 349 349 349 351 353 353 354 354 354 355 355 355 355 355 355 354 354 353 353 352 351 350 350 349 348 347 346
318 315 317 318 318 319 320 320 319 317 316 316 317 319 322 319 314 315 318 319 318 318 318 318 319 322 327 325 320 318 317 318 318 318 319 319 320 320 321 321 322 322 322 323 325 325 326 326 327 330 332 334 336 340 342 343 345 347 347 346 346 347 348 349 351 353 354 356 356 356 357 357 356 356 356 356 356 355 354 354 353 353 352 351 350 349 349
318 316 317 317 316 318 320 320 320 317 315 316 317 319 321 318 314 315 317 317 316 316 316 316 317 320 321 320 318 317 317 317 317 318 318 318 319 319 320 320 322 322 321 322 324 324 325 325 326 328 332 334 336 337 339 341 343 344 343 343 344 345 346 347 350 352 355 357 358 358 358 357 357 358 357 357 357 357 357 356 355 355 354 354 353 352 352
317 317 318 317 317 319 320 320 320 318 315 315 316 318 318 315 314 316 316 314 314 314 314 314 315 316 316 316 315 315 316 317 317 317 317 317 318 318 319 319 321 321 321 321 322 323 324 324 325 327 331 333 334 335 336 338 340 339 339 341 344 346 347 347 348 350 352 354 357 359 359 358 357 357 358 358 358 358 358 357 357 357 356 356 355 354 354
316 317 318 317 318 319 320 320 319 317 316 317 316 315 314 314 315 316 314 313 313 313 312 312 313 313 313 313 314 315 316 316 316 316 316 317 317 317 318 318 319 321 321 321 321 322 323 324 324 327 329 330 330 332 333 334 335 335 335 338 342 346 348 348 349 351 350 350 352 355 357 357 357 357 358 358 358 358 359 358 358 358 358 357 356 356 356
315 316 315 316 318 317 318 319 317 316 319 319 314 313 314 314 314 314 313 312 311 311 311 310 311 311 311 312 314 314 315 315 315 315 316 316 316 317 318 318 319 320 321 321 321 321 322 323 324 326 328 328 328 330 331 331 332 332 332 335 340 345 348 350 351 352 351 350 351 352 354 354 355 356 358 358 359 359 360 359 359 359 358 358 357 357 356
316 317 314 315 318 318 317 318 318 320 321 317 314 315 315 313 312 312 312 311 310 310 310 310 310 310 311 312 313 313 314 314 314 315 315 316 316 317 317 318 318 319 320 321 321 321 321 322 324 325 326 327 327 328 329 328 329 329 330 332 337 343 348 350 350 351 352 353 354 355 356 355 354 354 355 356 358 360 360 360 359 359 359 359 358 357 357
317 318 316 316 318 319 317 317 319 319 318 315 314 314 313 311 312 311 310 310 309 309 309 309 309 310 311 312 312 312 312 313 313 314 315 315 316 316 316 317 318 319 320 320 320 320 321 322 323 324 325 326 326 327 327 327 327 328 328 331 335 340 344 345 345 347 349 351 352 353 354 354 355 354 352 353 355 358 359 359 359 359 359 359 358 358 358
314 315 315 314 314 315 314 314 315 314 314 314 313 311 311 311 311 310 309 309 309 308 308 308 308 309 310 311 311 311 312 312 312 313 314 314 315 316 316 316 316 317 318 319 319 320 321 322 323 323 324 325 326 326 326 326 327 327 328 329 332 335 338 340 340 341 343 345 347 349 351 352 355 356 354 351 351 353 357 358 359 359 359 359 358 358 358
313 314 317 314 313 313 313 313 313 312 312 313 312 311 311 310 309 309 308 308 308 307 308 308 308 309 310 310 311 311 311 311 312 312 313 313 314 315 315 315 316 316 317 318 319 319 320 321 323 323 323 324 325 325 325 326 326 327 328 328 329 331 334 336 337 338 340 343 345 348 351 353 355 357 356 353 350 350 353 356 358 359 358 358 358 358 357
313 315 316 314 313 313 313 312 312 311 311 312 311 310 310 309 308 307 307 307 307 307 307 308 308 309 309 310 310 310 310 311 311 311 312 312 313 314 314 314 315 315 316 317 319 319 320 320 322 323 323 324 324 324 324 325 326 326 327 328 329 330 331 333 335 338 340 344 346 349 352 353 355 357 357 354 351 350 352 355 358 358 358 358 358 358 357
313 313 312 311 310 311 311 311 310 309 309 312 311 310 309 308 308 307 306 306 307 307 307 307 307 307 308 309 309 309 310 310 310 310 311 312 312 313 313 313 314 314 315 317 318 319 320 319 321 323 324 324 323 323 323 324 325 326 327 328 329 330 331 333 335 338 340 344 347 350 351 353 354 355 356 356 354 353 354 356 357 357 358 358 358 358 358
314 313 313 312 312 314 315 315 313 311 309 310 311 310 309 309 308 307 307 306 305 306 306 306 306 307 307 308 308 309 309 309 309 310 311 311 312 312 312 312 313 313 314 316 317 319 319 319 321 323 324 323 323 322 323 324 324 325 326 327 329 330 332 333 336 338 341 343 345 347 349 350 351 353 354 356 357 357 357 357 357 357 357 358 358 358 358
316 313 314 314 313 314 315 314 314 312 309 309 311 311 310 310 308 307 307 307 306 306 306 306 306 306 307 307 308 308 308 309 309 310 310 310 311 311 311 311 312 313 314 315 317 318 319 319 321 323 324 323 322 322 322 323 323 324 325 326 328 331 332 334 336 337 339 341 344 346 347 348 350 352 354 355 357 357 358 357 357 357 356 357 357 358 358
314 313 315 314 313 315 315 314 314 312 308 309 311 310 309 309 307 306 307 307 307 307 306 306 306 306 306 307 307 307 308 309 308 309 309 310 310 310 310 311 312 313 315 316 318 319 319 319 321 323 324 323 321 321 321 322 322 322 324 325 328 330 332 334 336 337 339 341 344 346 347 347 349 350 352 353 355 357 358 357 357 356 356 357 357 357 357
314 315 316 313 314 316 314 311 311 308 305 307 310 309 308 308 307 307 307 307 306 306 306 305 305 305 305 306 306 307 307 307 308 308 309 310 311 311 312 313 314 315 317 317 318 319 319 319 321 323 323 322 320 320 321 321 321 322 323 324 326 328 330 332 334 336 339 341 342 344 345 346 347 349 350 352 354 356 358 357 357 356 355 355 356 357 357
312 315 315 312 312 313 310 309 312 312 307 306 308 309 308 308 309 309 308 306 306 305 305 305 305 305 305 305 306 306 307 307 308 309 310 311 311 311 312 313 314 316 317 318 319 319 319 320 322 323 323 321 319 319 320 321 320 321 322 323 325 326 328 330 332 334 336 337 340 341 343 344 346 347 348 351 353 356 356 356 356 356 356 356 356 356 357
310 312 313 312 312 312 311 312 314 313 307 305 306 307 306 307 307 307 306 305 304 304 304 305 305 305 305 305 306 307 308 308 309 310 310 311 311 312 313 314 315 316 317 318 318 319 319 321 323 323 322 320 319 319 319 320 320 320 321 322 323 325 326 328 329 330 331 333 335 338 340 342 344 346 347 349 352 355 357 356 356 356 356 356 356 356 357
310 310 311 312 314 315 314 311 309 307 306 305 305 306 306 306 305 305 305 304 304 304 304 305 305 305 305 306 306 307 308 308 308 308 308 309 310 311 313 313 314 315 316 317 318 319 320 322 322 321 320 319 318 318 319 319 319 320 320 321 323 324 324 325 326 327 328 329 331 332 334 337 339 342 344 346 348 352 355 357 356 357 356 357 357 357 357
310 309 310 311 311 310 309 308 308 308 308 306 305 305 306 306 306 305 305 304 304 304 304 305 305 305 305 306 307 307 308 308 309 308 308 309 309 310 311 312 313 314 316 317 318 319 321 322 321 319 319 318 317 317 318 318 319 319 320 321 322 322 323 323 324 325 325 326 328 329 331 333 334 337 340 342 345 348 352 355 357 357 357 357 356 356 356
309 308 309 310 309 308 309 311 312 311 309 307 307 306 305 305 306 306 305 304 303 304 304 305 305 305 306 306 307 308 308 309 309 309 309 309 309 310 310 311 313 315 316 317 319 320 321 321 319 318 318 317 316 317 318 318 318 319 320 320 320 321 321 321 322 323 323 325 326 328 330 332 333 335 338 341 343 345 348 352 355 357 358 358 357 356 356
309 309 309 310 309 310 311 312 311 310 308 307 307 308 307 306 307 306 304 304 304 304 304 305 305 306 306 307 307 308 309 309 309 309 309 309 309 309 310 311 313 315 317 318 320 320 321 319 317 316 316 316 315 316 317 317 318 318 319 319 319 319 319 320 320 321 323 324 325 327 329 332 334 335 338 340 341 343 344 347 351 354 357 358 357 356 357
310 310 310 311 310 310 311 310 309 309 309 308 309 309 308 307 306 305 305 304 304 304 305 306 306 307 307 308 308 309 309 309 309 309 310 310 310 310 310 311 313 315 317 319 320 320 318 317 316 315 315 315 315 316 316 316 317 318 318 318 318 318 318 319 320 320 321 323 324 326 329 331 333 335 337 340 341 342 343 345 347 351 354 357 358 358 358
312 313 313 313 312 312 313 312 309 309 310 309 308 307 305 304 304 304 304 305 305 306 307 307 307 308 308 308 308 309 309 310 310 310 310 310 310 310 311 313 315 316 318 319 319 318 316 315 314 314 315 315 315 316 316 316 317 317 317 316 316 317 317 318 319 319 320 322 324 325 326 328 330 332 336 339 341 342 343 344 345 347 349 353 355 357 356
313 315 315 314 313 313 315 315 313 312 312 309 306 303 303 303 304 304 304 305 306 307 307 307 308 308 309 309 310 310 310 310 311 311 311 311 311 312 313 315 316 317 317 317 316 315 313 313 313 314 315 315 315 315 315 316 316 316 316 315 315 316 317 317 318 318 319 320 321 321 322 324 326 329 333 336 339 342 343 343 344 345 347 349 351 353 354
309 310 310 308 306 307 309 311 312 312 312 311 308 305 304 304 304 304 305 306 307 307 307 307 308 308 309 310 312 312 311 311 312 312 312 312 313 314 315 316 316 315 314 313 312 312 312 312 313 314 315 315 314 314 315 315 316 316 315 314 314 315 315 316 316 317 317 317 318 318 320 321 323 325 328 332 337 340 343 343 344 344 345 346 348 349 350
308 310 310 307 305 305 306 306 307 307 307 307 307 305 304 304 304 305 306 306 306 306 307 307 308 308 309 309 311 311 311 311 311 311 311 311 312 313 314 313 313 312 312 311 310 310 310 311 312 314 314 314 313 314 314 315 315 315 313 313 313 313 314 314 314 314 314 315 315 316 317 318 319 320 322 325 330 334 338 341 343 345 346 346 347 346 345
307 308 309 307 306 306 306 306 306 306 306 305 305 305 305 305 305 305 306 306 306 306 306 306 307 308 308 308 308 309 309 309 309 309 309 309 309 309 310 310 310 311 310 309 309 309 310 311 312 312 313 312 312 312 313 314 314 313 312 312 311 312 312 312 312 312 312 312 313 313 314 315 315 316 316 318 320 323 326 328 331 333 333 334 334 334 333
307 306 307 307 307 307 307 307 307 307 306 306 306 305 305 305 305 305 306 306 305 304 305 305 306 306 307 307 307 307 307 308 308 308 308 308 308 308 308 308 308 309 309 308 308 308 309 310 311 311 311 311 311 311 312 313 313 312 311 310 310 311 311 311 310 311 311 311 311 311 311 311 312 312 312 313 314 315 315 316 316 317 317 317 317 317 316
307 307 307 307 306 306 307 307 307 306 306 306 306 305 304 304 305 305 306 304 303 303 304 304 305 305 305 306 306 306 305 306 306 307 307 307 307 307 307 307 307 307 307 307 307 307 308 310 310 309 309 310 310 310 311 312 311 310 309 309 309 309 310 309 309 309 310 309 309 309 309 309 309 309 309 310 310 310 310 310 309 309 308 307 307 307 306
307 306 306 306 306 306 307 307 307 306 306 306 305 304 304 304 304 305 305 304 302 302 302 303 304 304 304 304 305 305 305 305 305 305 306 306 306 306 306 306 306 306 306 306 306 307 308 308 308 308 308 309 310 310 310 310 309 309 308 308 308 308 308 308 307 308 308 308 308 308 307 307 307 307 307 307 306 306 306 306 305 305 304 303 303 303 302
306 306 306 306 306 306 307 307 307 306 305 305 304 304 304 304 304 304 304 302 301 301 301 302 303 303 302 302 303 302 303 304 304 304 304 305 305 306 305 305 305 306 306 306 306 306 306 307 308 307 308 308 309 309 309 308 308 308 308 307 307 307 307 307 306 306 306 306 306 306 306 305 305 305 305 304 304 303 303 303 302 302 301 301 301 300 300
305 305 305 306 306 307 307 307 306 306 305 304 304 304 303 303 303 303 302 301 301 300 300 300 301 301 301 301 301 301 301 302 303 303 304 304 304 305 305 304 304 305 306 305 305 305 305 306 307 307 307 307 308 308 308 307 307 307 307 307 307 306 306 306 306 305 305 305 305 305 305 304 304 303 303 302 302 301 301 301 300 300 300 299 299 299 299
305 305 305 306 307 307 307 307 306 305 304 304 304 303 302 302 302 302 301 300 300 300 299 299 300 300 300 300 300 300 300 300 301 302 303 303 303 304 304 304 304 304 305 304 304 304 304 305 305 306 307 306 307 307 306 306 306 306 306 306 306 306 306 305 305 305 305 305 304 304 304 303 303 302 302 301 300 300 300 299 299 299 298 298 298 298 297
305 305 306 306 307 307 307 307 306 305 304 304 303 302 302 301 301 301 301 300 300 300 300 299 299 299 299 299 299 299 299 299 299 300 302 302 303 303 303 303 303 303 303 303 303 303 304 304 304 305 305 305 305 305 305 305 305 305 305 305 305 305 305 305 304 304 304 304 303 303 303 302 302 301 301 300 300 299 299 299 298 298 298 297 297 296 296
305 305 306 307 307 307 307 307 305 304 304 303 303 302 301 301 301 301 301 301 301 300 300 299 299 299 298 298 298 298 298 298 298 299 300 301 302 303 302 302 302 303 302 302 302 303 303 303 304 304 304 304 304 303 303 303 304 304 304 304 304 304 304 304 304 303 303 303 303 302 302 302 301 301 301 300 300 300 299 299 298 298 297 297 296 295 295
305 306 307 307 306 306 307 307 305 304 304 303 303 302 301 301 301 301 301 301 301 300 299 299 299 299 298 298 297 297 297 297 297 297 298 299 300 301 301 301 301 302 302 302 302 302 302 302 302 303 303 303 302 302 302 302 303 303 303 303 303 303 303 303 303 303 303 302 302 302 301 301 301 301 301 300 300 300 299 298 298 297 297 296 295 295 295
306 306 306 307 307 307 307 306 304 304 303 303 303 303 302 301 301 301 301 301 301 300 299 299 299 299 299 298 297 297 297 297 296 296 297 297 299 300 301 301 300 300 300 301 301 301 302 301 301 301 302 302 302 302 302 302 302 302 302 302 302 302 302 302 302 302 302 302 302 301 301 301 301 300 300 300 300 299 298 298 297 297 296 295 295 295 295
306 306 306 307 307 307 306 305 304 304 303 303 303 302 301 300 300 301 301 302 301 300 300 299 299 299 299 298 297 297 297 297 296 296 296 296 297 298 299 300 300 299 299 299 300 300 300 301 301 301 300 300 301 301 301 301 301 301 301 301 301 301 301 302 302 302 301 301 301 301 301 300 300 300 300 300 300 299 298 298 297 296 296 295 296 296 295
306 306 306 307 307 307 306 305 304 304 304 303 303 302 301 301 301 302 302 303 302 302 301 300 300 300 300 300 299 297 296 296 296 296 296 296 296 297 298 299 299 298 298 298 299 299 299 299 299 300 299 299 300 300 300 300 300 300 300 301 301 301 301 301 301 301 301 301 301 300 300 300 300 300 300 300 299 299 298 298 297 297 296 295 295 295 295
306 306 306 306 306 306 306 306 305 305 305 304 303 303 303 302 303 303 303 303 303 303 302 301 301 301 300 300 300 299 298 297 297 296 296 296 296 296 296 297 298 298 298 298 298 298 298 298 298 298 298 298 299 299 299 299 299 299 300 300 300 299 299 299 300 300 300 300 300 299 299 299 299 299 299 299 299 298 298 297 297 296 296 295 295 295 294
306 306 306 305 305 305 305 305 305 306 305 304 303 304 304 304 304 303 303 302 303 303 302 302 302 302 301 300 300 300 300 299 299 298 297 297 296 296 296 296 297 297 297 297 298 298 298 298 297 297 296 296 297 298 298 298 298 298 298 298 298 298 298 298 298 298 298 298 298 298 298 298 298 298 297 297 297 297 297 297 297 296 296 295 295 294 294
306 306 306 305 305 305 305 305 305 306 305 304 304 304 305 304 303 303 303 303 303 303 303 303 303 302 301 300 299 299 299 299 299 299 298 298 297 297 297 297 296 296 297 297 297 297 298 298 297 297 296 295 296 296 296 296 296 296 296 297 297 297 297 297 297 296 296 296 296 296 296 296 296 296 296 296 296 296 296 296 296 295 295 294 294 293 293
Wind_Speed
2 1 3 4 2 1 2 3 4 4 5 4 1 3 5 5 4 4 6 1 3 5 7 7 7 7 7 7 9 9 10 11 11 12 14 16 16 16 15 15 14 13 13 13 13 16 21 22 18 9 4 16 24 27 27 29 31 31 32 32 33 33 33 34 35 35 35 34 35 36 36 36 36 37 37 37 37 37 36 37 37 37 37 36 36 35 36
3 4 3 3 3 3 3 4 5 5 5 5 5 5 5 5 6 7 7 4 2 3 5 5 4 5 5 5 6 8 10 13 14 14 14 14 15 15 14 13 13 12 11 12 15 18 20 22 23 21 16 7 10 22 28 28 30 31 32 32 33 33 33 34 35 35 34 34 34 35 35 36 36 37 37 36 36 37 37 37 37 37 36 36 35 35 35
3 4 4 3 3 2 3 5 6 6 5 5 4 4 3 3 5 5 5 4 1 1 4 4 3 3 4 6 8 10 11 13 14 13 14 14 14 14 14 13 13 13 12 12 15 18 20 21 21 21 22 20 11 8 22 29 31 32 32 33 33 34 35 36 35 34 34 34 34 34 35 36 36 36 37 36 35 36 36 37 37 37 36 35 35 35 35
2 2 3 5 4 2 3 4 5 5 3 2 3 3 2 1 2 2 1 2 2 2 4 3 2 3 6 7 8 8 8 11 12 13 14 14 13 13 13 13 13 14 14 13 15 17 18 20 22 22 23 22 20 13 7 20 29 33 33 34 35 35 35 35 35 35 34 34 34 35 36 36 36 36 36 35 35 35 35 36 36 35 35 35 36 35 35
3 3 3 4 3 4 2 2 2 3 3 3 4 2 4 3 1 1 2 2 2 3 3 4 4 5 6 6 6 6 7 9 10 11 12 12 13 13 13 13 13 13 13 14 16 18 19 20 21 22 22 22 22 21 15 10 18 30 35 34 34 36 36 36 36 36 35 34 34 35 36 36 37 36 35 35 35 35 36 36 35 34 35 36 36 36 35
3 6 5 4 3 2 3 3 2 3 4 4 2 1 3 4 2 3 3 0 1 3 3 4 5 4 3 3 3 4 5 6 8 9 10 10 11 11 12 12 12 12 14 16 19 20 20 21 23 22 22 23 23 22 19 15 9 20 32 36 36 36 37 38 39 39 39 38 38 38 38 37 36 35 35 36 37 36 36 34 33 35 36 36 36 37 37
2 3 4 4 1 4 5 5 5 3 2 1 2 4 3 4 4 3 2 2 2 3 3 3 4 4 2 1 3 6 6 5 6 8 9 9 10 11 11 12 12 14 17 19 20 22 23 24 25 24 24 25 24 23 21 18 13 7 15 26 34 38 38 39 40 40 40 40 41 40 39 38 36 35 36 37 37 36 35 34 34 36 37 36 37 38 38
0 2 2 1 3 6 5 5 5 3 3 4 3 3 2 4 4 3 3 4 4 4 4 4 5 5 4 3 2 7 7 6 5 6 7 8 9 9 10 12 13 15 18 18 18 19 22 25 25 23 25 26 24 22 19 17 15 12 9 10 17 26 33 36 38 38 37 36 36 37 37 36 36 36 36 37 37 36 35 34 34 35 35 36 37 38 39
2 1 1 1 3 6 5 3 2 1 2 2 1 0 0 3 4 4 4 5 7 6 5 5 7 5 1 1 3 6 8 8 6 5 6 8 9 10 11 12 13 15 17 18 18 17 19 22 24 23 24 24 23 20 17 13 13 10 8 11 14 16 19 23 28 32 33 33 33 33 34 34 35 36 37 37 37 36 34 33 34 35 35 36 37 38 37
2 3 1 2 2 3 3 3 3 1 1 2 1 0 1 2 4 5 4 4 7 7 7 7 8 5 2 1 3 7 9 9 8 7 8 9 10 11 13 13 14 15 17 18 17 16 16 19 22 23 23 22 20 18 15 12 11 12 10 9 12 16 20 20 22 26 28 31 33 33 32 33 34 35 35 35 36 35 34 34 35 36 36 36 36 37 37
2 3 1 1 2 3 5 5 4 3 3 3 0 1 1 1 4 6 5 5 6 7 8 8 6 4 2 1 4 8 10 11 9 9 10 13 13 13 14 15 15 17 20 20 19 19 18 18 22 23 22 20 17 16 16 14 11 12 14 15 15 17 21 23 22 25 27 29 31 32 32 33 34 34 34 35 35 34 34 35 36 36 35 34 35 36 37
3 3 2 2 3 4 4 4 4 4 2 1 2 1 2 1 3 5 4 5 6 6 7 7 5 4 3 3 5 9 12 13 13 12 12 15 18 18 17 17 17 19 21 20 21 23 23 22 22 22 20 18 15 15 16 15 12 12 14 16 16 16 18 20 19 20 24 27 29 30 31 31 32 32 33 33 33 32 32 34 35 34 34 34 35 36 36
3 4 3 2 3 4 3 4 4 3 1 2 1 2 2 1 3 3 3 4 5 5 5 5 3 2 4 5 7 9 9 10 14 17 18 19 21 22 21 20 18 18 19 20 21 22 23 24 24 22 18 16 14 14 14 14 13 15 17 16 14 14 14 14 15 16 16 20 24 27 29 28 26 27 28 28 29 30 31 32 32 32 33 34 35 36 36
2 2 2 3 4 3 3 3 3 1 1 2 3 3 2 2 2 2 2 3 3 4 4 4 4 5 6 7 8 8 7 7 10 16 20 21 23 25 25 24 21 18 17 19 21 22 23 23 24 22 18 15 14 13 13 14 14 17 19 17 14 14 14 11 11 14 11 11 14 17 21 23 25 27 27 27 28 30 31 32 32 33 34 34 33 34 34
2 1 2 3 3 2 3 2 1 2 3 3 3 2 1 1 0 1 2 2 3 4 5 6 7 8 8 7 7 7 7 7 9 13 17 18 21 25 27 26 24 21 18 16 17 21 24 23 22 22 21 18 15 12 13 17 18 17 17 15 13 13 14 11 10 12 12 9 8 7 9 13 20 25 28 29 30 31 31 32 32 33 34 33 32 32 32
3 3 4 4 3 4 5 3 3 3 4 3 3 2 1 1 1 2 2 3 3 3 5 7 9 10 10 8 7 7 8 8 8 11 14 16 19 22 25 28 28 25 22 19 17 18 22 23 21 19 19 21 20 17 16 20 22 20 17 15 12 10 10 9 9 10 11 11 11 8 6 8 13 19 23 26 28 30 32 32 31 32 32 32 31 30 31
3 4 5 4 2 3 4 3 4 5 4 2 4 3 2 2 2 2 2 4 5 4 5 7 8 9 11 11 9 7 8 9 9 10 12 15 18 20 22 27 29 27 24 24 22 20 19 20 21 19 17 18 20 20 21 22 23 22 20 18 14 11 9 8 8 8 9 11 12 11 8 9 13 17 20 21 23 26 30 31 31 31 31 31 30 30 30
3 4 5 5 4 5 6 5 5 4 3 3 4 4 3 3 3 3 3 4 6 6 6 7 7 8 10 13 12 10 8 9 12 13 13 14 18 20 21 24 28 29 27 26 26 24 20 18 19 20 18 16 16 18 21 21 20 20 19 18 17 15 13 11 10 11 12 13 14 14 12 11 13 16 19 21 22 25 28 31 32 33 31 30 30 30 30
2 3 4 5 6 7 6 5 4 3 4 4 4 4 4 4 4 4 4 5 6 7 7 7 8 9 9 11 13 12 9 8 12 15 15 14 16 19 21 22 25 28 28 27 26 25 24 21 19 19 20 20 18 18 19 18 17 17 17 17 17 18 17 15 14 13 14 14 14 14 14 13 14 16 19 23 26 28 31 33 33 32 31 30 28 29 30
3 4 6 6 5 6 6 5 4 4 5 5 5 4 4 4 4 5 6 6 5 5 6 7 9 10 10 10 12 13 10 9 10 14 18 19 18 20 22 23 23 23 25 27 27 26 26 25 22 20 20 22 22 21 21 19 17 16 16 15 16 18 18 16 15 14 14 13 13 13 13 14 16 18 21 25 30 35 39 40 36 34 33 31 31 32 33
2 6 7 6 4 6 7 7 7 7 5 5 5 5 4 4 5 5 6 7 7 7 8 8 9 11 11 10 12 13 12 10 11 14 19 22 22 22 23 23 23 22 23 26 29 29 28 26 24 22 20 21 22 22 22 20 18 17 17 16 16 16 17 15 14 14 14 13 12 12 14 16 18 21 23 27 31 37 41 42 41 40 37 35 37 39 37
3 6 6 4 3 4 6 6 6 7 6 5 4 4 4 5 5 4 5 6 8 9 11 11 10 10 11 11 13 13 13 14 15 16 19 22 24 25 25 24 24 24 24 26 29 31 31 28 25 22 21 21 21 21 20 18 17 17 17 17 16 15 15 14 13 13 14 14 13 13 15 17 19 22 24 25 27 32 37 39 42 43 42 40 40 40 37
6 8 8 6 4 4 5 5 5 6 5 4 5 5 5 5 6 5 4 5 6 8 11 13 13 11 11 14 15 14 15 19 21 20 20 21 23 26 28 26 24 24 25 26 28 30 31 29 25 23 21 21 20 19 17 16 16 17 17 16 16 15 15 14 14 15 16 16 15 16 17 19 19 21 23 25 26 29 32 36 40 42 43 44 44 41 37
7 7 6 7 6 5 5 5 5 5 5 5 5 6 6 6 7 6 5 6 8 8 9 12 15 15 15 18 18 15 17 23 24 23 23 23 25 28 30 28 26 25 25 25 26 28 29 29 27 25 22 21 20 19 15 14 15 17 16 16 16 16 16 16 16 16 17 18 17 18 19 21 22 21 21 22 25 27 28 31 36 40 41 43 44 44 43
7 6 5 7 7 6 4 3 3 5 6 7 5 6 7 8 8 8 7 7 10 11 10 12 17 19 19 20 20 19 21 24 25 25 24 24 24 26 27 28 27 25 24 25 27 28 28 27 27 25 22 21 21 20 16 14 15 16 16 16 17 18 18 18 17 18 19 20 20 20 20 22 23 23 21 19 20 23 26 26 29 36 40 42 43 43 44
8 4 5 5 4 3 2 2 1 4 8 8 7 7 9 10 10 10 10 11 13 15 14 15 18 20 20 20 22 22 23 24 26 25 24 23 23 23 25 27 28 27 26 26 27 27 27 25 24 22 21 21 21 20 17 17 17 16 16 17 18 20 20 20 20 20 21 22 22 22 22 24 24 23 23 22 21 21 23 22 22 27 35 40 43 43 43
7 5 6 4 3 3 3 4 4 6 7 7 7 8 11 12 11 11 12 13 15 17 18 19 20 21 21 21 22 22 23 23 24 23 22 22 22 23 24 26 28 29 29 28 27 26 25 23 20 20 21 21 20 17 17 18 18 18 18 18 20 21 21 20 20 21 21 22 23 22 23 24 24 24 24 25 24 22 22 21 20 22 27 33 39 42 44
6 6 7 7 6 5 5 6 6 6 7 8 9 9 11 10 9 8 9 11 14 16 17 19 20 20 19 20 20 20 21 21 22 22 23 24 24 24 24 25 27 29 29 28 28 26 23 20 19 19 21 20 17 14 15 17 18 19 18 18 19 22 22 21 21 22 23 23 23 23 23 24 25 26 27 27 26 25 24 23 23 24 25 28 30 34 39
6 6 7 7 5 4 3 2 3 5 6 7 8 9 8 7 6 7 7 9 11 13 15 17 19 18 19 20 20 19 18 19 20 22 24 25 26 26 26 27 28 29 28 27 27 25 22 19 18 19 20 19 15 13 15 17 18 18 18 18 19 21 22 22 22 23 24 25 24 23 24 25 26 28 28 28 28 27 25 24 24 25 25 25 24 24 28
4 4 5 5 3 4 2 3 4 4 5 5 5 6 7 6 6 7 9 10 11 12 14 17 18 18 20 21 21 20 20 20 21 23 25 26 26 26 26 26 24 23 24 25 24 23 22 19 17 18 19 17 13 12 15 17 17 18 18 18 19 20 21 22 23 23 24 24 23 23 23 24 25 26 27 28 28 27 26 25 24 24 25 25 23 23 26
3 4 4 3 3 4 3 4 4 5 5 5 4 5 6 6 7 8 9 9 10 12 16 19 19 19 21 21 22 23 23 23 23 24 25 26 26 26 26 25 21 19 21 23 22 21 19 17 15 16 16 15 13 12 14 16 17 18 18 18 19 21 21 22 22 22 22 22 22 22 22 22 23 25 27 27 26 25 25 25 24 24 25 25 24 27 30
4 4 2 2 3 2 2 3 4 5 6 5 4 5 6 6 7 8 9 10 12 15 18 19 20 21 22 23 24 25 24 23 23 24 24 25 25 25 24 24 23 23 24 23 19 17 16 15 14 13 13 13 13 13 13 15 16 18 18 18 19 20 21 21 21 21 20 20 20 20 19 19 20 22 25 26 25 24 24 23 23 23 24 24 25 29 30
6 4 1 2 3 2 4 5 4 5 6 5 4 5 7 7 8 9 11 13 16 17 18 20 22 24 26 26 26 25 23 21 21 21 22 22 23 23 23 24 25 25 23 19 16 14 13 13 13 12 11 11 12 12 13 14 15 16 17 17 18 19 20 20 20 19 18 17 17 16 16 17 19 21 23 24 24 23 23 22 21 21 23 23 25 27 26
7 6 5 6 6 4 5 5 4 4 4 4 4 5 8 9 10 11 14 16 16 17 19 22 26 27 27 27 25 22 19 15 12 14 17 19 19 21 22 23 22 20 17 14 12 11 10 9 10 10 10 11 11 12 12 12 14 16 16 16 16 17 18 19 19 17 15 15 14 14 13 14 16 18 21 22 22 22 21 21 20 20 22 23 25 24 22
7 6 5 6 6 6 6 5 4 4 3 3 4 5 8 10 11 13 16 18 17 18 21 24 25 25 25 23 18 13 12 11 11 12 14 15 16 17 17 16 16 15 12 9 6 6 6 7 8 9 10 11 11 11 10 10 13 16 16 14 13 14 15 16 17 16 14 14 14 13 12 12 13 15 16 18 19 20 21 22 22 21 21 22 24 23 21
8 5 3 4 5 6 7 6 5 5 5 3 4 5 8 11 13 14 17 18 17 19 22 23 23 22 21 21 18 12 7 4 3 2 2 2 2 2 4 7 8 8 6 3 1 4 6 7 8 10 11 10 8 9 9 9 12 15 14 11 11 11 13 14 14 14 13 13 13 12 11 10 10 10 11 10 11 12 13 16 19 21 21 22 21 20 17
9 7 5 6 6 6 7 7 7 6 5 3 4 6 8 11 14 16 16 15 16 18 21 21 20 18 18 18 19 18 16 14 14 14 15 15 14 13 11 8 5 5 5 4 7 8 7 8 10 11 11 8 7 8 7 7 10 12 11 9 8 9 10 11 12 12 12 12 11 11 11 10 10 11 12 11 10 10 10 9 7 4 4 4 4 5 6
8 9 8 7 7 7 6 6 5 5 3 2 5 8 9 11 15 16 14 13 15 18 19 19 18 17 17 18 19 19 19 18 15 15 15 16 16 15 13 12 10 9 8 9 10 10 8 9 11 12 10 8 7 7 5 5 7 8 7 6 6 6 7 8 9 10 10 10 10 10 11 11 12 13 15 16 16 18 19 20 20 20 19 18 17 15 13
5 7 8 7 6 5 4 4 4 4 2 2 6 9 10 12 15 15 12 11 14 17 18 19 18 17 16 16 15 17 20 21 18 15 14 14 13 13 12 12 13 12 10 10 11 10 9 10 11 11 9 7 6 6 4 4 5 4 2 3 3 3 5 6 7 7 8 9 9 9 11 13 14 15 17 19 21 23 24 25 27 28 28 27 27 26 24
5 7 8 7 5 4 4 3 3 2 1 4 7 9 11 13 15 13 10 11 14 17 18 18 16 15 15 14 14 15 18 19 19 17 15 13 12 11 11 13 15 13 11 10 10 10 10 11 10 9 8 5 5 5 4 3 2 1 3 4 4 4 5 6 6 6 7 8 9 10 11 13 15 17 20 22 24 27 28 29 31 32 31 31 30 30 29
6 8 9 7 5 5 5 3 1 3 6 7 8 10 11 13 13 11 10 11 14 17 18 18 16 14 14 15 15 18 19 19 18 18 16 15 12 9 7 10 14 14 11 10 11 10 10 10 9 8 7 5 3 3 2 1 2 4 5 6 6 7 7 8 8 8 8 8 10 11 13 15 17 19 21 23 26 28 30 32 33 32 32 32 32 31 31
8 9 7 6 6 6 4 3 4 7 9 8 9 10 11 11 11 10 10 12 15 17 18 18 17 17 17 17 17 19 20 20 19 17 15 14 13 10 7 10 14 14 11 10 12 11 10 10 9 8 6 4 3 2 1 4 6 7 7 8 8 9 10 10 10 10 11 12 13 15 15 17 18 20 22 24 27 28 30 33 34 34 33 34 35 34 33
9 10 9 8 8 7 5 4 7 9 9 9 10 10 11 11 10 10 11 13 15 15 16 17 18 18 18 18 18 18 19 21 21 19 14 13 15 14 12 11 14 15 12 11 13 14 13 11 10 9 7 5 3 2 4 7 7 8 10 11 11 11 12 12 12 13 14 16 17 18 18 19 19 20 22 24 26 28 29 32 33 34 34 35 35 36 35
10 11 11 10 9 8 6 6 9 11 9 9 10 10 10 10 10 10 11 12 13 13 15 17 17 17 18 18 17 16 17 19 21 19 15 11 13 17 17 15 14 14 14 13 15 15 15 13 11 10 8 8 6 6 8 9 9 10 13 15 14 14 14 15 15 17 19 20 22 22 22 22 22 22 23 24 25 27 28 30 31 32 33 34 35 36 37
9 12 13 11 10 9 7 8 11 12 10 10 11 10 9 9 9 9 10 12 13 14 16 17 17 17 18 18 18 17 18 19 20 20 16 11 10 15 19 18 17 15 15 15 16 16 15 14 13 12 10 9 9 10 12 12 12 12 15 16 16 16 16 17 18 20 22 24 25 26 26 25 26 26 26 26 27 29 30 31 32 32 33 34 35 36 36
9 12 13 13 11 8 7 9 12 13 12 12 11 9 7 7 7 8 10 12 14 15 16 16 16 17 17 18 18 18 18 20 22 24 22 17 15 17 20 19 18 18 17 18 19 18 17 16 16 15 13 12 13 14 15 15 15 16 18 18 17 16 17 18 19 21 23 25 27 28 27 27 28 29 29 28 28 29 30 32 32 32 33 35 36 37 37
10 12 13 12 10 7 8 11 14 13 11 10 8 6 5 6 6 8 10 12 13 14 15 15 15 16 16 17 18 18 17 16 19 23 25 23 21 20 21 20 20 21 21 22 23 22 20 19 20 19 17 17 18 19 19 19 19 20 20 20 19 19 19 19 20 22 24 25 27 28 29 29 30 31 31 30 29 29 32 35 35 34 34 35 34 33 35
10 12 13 11 9 9 10 12 13 11 10 9 9 7 6 5 5 7 9 10 10 11 12 13 13 14 14 15 17 18 17 14 13 17 22 24 23 22 22 22 22 23 24 25 25 25 24 23 22 21 21 22 23 23 23 23 23 23 23 22 21 21 21 21 21 23 24 25 26 27 28 29 30 30 31 31 30 30 33 36 36 35 36 35 32 29 31
11 13 13 11 9 9 11 11 9 9 10 11 10 8 6 4 3 4 5 6 7 8 9 9 10 12 13 12 12 14 17 17 15 15 18 22 23 24 24 23 23 23 25 26 26 26 26 26 25 24 24 25 25 25 26 26 26 25 25 25 24 24 24 23 23 23 25 26 27 27 28 28 29 30 32 33 33 33 34 35 34 34 35 35 32 30 33
12 12 12 10 8 8 9 9 7 9 11 11 10 8 6 3 2 2 3 5 6 6 7 7 7 8 11 12 11 10 11 14 16 17 18 20 22 24 25 24 24 24 25 26 26 26 27 27 26 26 26 27 27 27 28 28 28 27 27 26 26 27 27 26 26 26 26 27 27 28 28 28 29 30 30 31 31 31 32 33 33 33 34 35 33 30 31
11 11 11 10 8 7 6 5 5 8 11 11 9 7 6 3 1 1 2 4 5 5 5 6 7 7 9 11 12 12 11 10 12 14 17 18 19 21 23 24 24 25 26 27 27 26 25 25 26 27 27 28 29 29 29 30 30 29 28 28 28 28 27 27 28 28 27 26 26 27 27 29 30 31 31 30 29 28 28 28 28 28 30 32 33 32 31
9 10 10 9 8 7 6 5 4 6 10 10 8 6 5 3 3 2 1 2 4 5 7 8 8 8 8 8 10 13 14 13 13 14 16 16 16 17 19 20 22 24 25 26 26 25 25 25 25 26 26 27 28 29 30 31 32 31 30 30 30 30 29 29 28 28 27 26 26 26 27 29 32 34 34 34 33 33 32 31 31 31 31 32 33 34 34
Wind_Direction
338 320 331 349 16 324 296 312 314 313 326 341 326 234 221 157 133 241 251 281 29 15 13 16 12 5 2 356 349 343 346 355 4 9 15 18 17 15 17 16 15 15 15 15 15 12 13 15 14 6 227 204 202 202 203 202 202 203 202 201 203 205 207 209 212 214 215 216 217 219 221 222 223 224 225 226 227 227 228 229 231 233 234 235 236 237 239
358 351 350 8 22 354 315 291 281 281 291 288 266 253 233 196 202 237 265 300 27 55 7 8 33 12 353 352 352 358 3 4 7 12 14 15 13 10 9 9 8 8 10 13 14 14 14 13 10 7 3 340 221 206 203 202 203 203 201 201 203 204 206 211 213 214 215 216 218 219 220 222 224 224 225 226 227 227 227 229 230 231 232 233 234 236 237
356 343 358 358 350 313 278 281 279 277 291 298 277 266 253 228 244 262 272 277 267 44 347 358 41 12 4 16 11 11 11 6 6 10 12 12 8 1 359 1 2 2 4 7 10 12 10 8 6 3 359 357 345 233 207 203 203 203 202 201 202 204 207 210 212 214 214 216 217 218 220 222 223 224 226 226 226 227 228 229 231 231 232 232 233 235 236
305 303 352 320 303 300 276 278 281 276 279 288 270 284 349 337 280 280 240 233 255 309 332 348 8 19 33 30 17 12 9 8 11 11 10 9 3 356 353 353 356 358 360 3 4 2 1 2 3 0 356 355 355 345 265 215 206 202 202 203 203 205 208 210 211 212 213 215 216 218 220 221 222 224 225 225 226 227 228 230 230 231 232 233 234 235 236
283 286 313 299 323 7 323 258 274 277 273 283 285 331 27 5 296 179 177 207 254 292 328 357 360 16 36 30 19 16 8 5 10 11 11 7 359 354 350 348 352 354 354 357 356 352 354 356 356 356 356 353 351 350 340 283 222 205 201 202 204 205 207 208 210 211 211 213 216 218 220 221 222 223 223 224 226 227 229 230 230 231 232 233 235 235 236
269 288 318 343 15 4 265 246 264 265 268 288 294 58 35 355 10 122 147 175 333 319 343 11 357 352 25 33 27 31 19 5 1 3 8 8 358 351 347 346 348 349 349 352 351 347 347 349 350 353 357 356 353 354 352 340 282 219 205 202 203 206 207 208 208 208 208 209 212 217 220 221 221 221 221 224 226 227 228 229 228 230 232 233 233 235 235
239 305 7 24 327 250 255 287 298 277 286 17 99 102 61 9 16 65 73 9 351 337 338 348 326 300 242 172 41 37 31 12 357 352 355 2 360 352 347 345 344 346 347 347 347 346 344 344 348 354 357 356 358 1 2 360 350 291 223 210 206 204 206 208 209 209 209 210 211 213 216 218 218 219 221 223 225 227 227 227 228 230 231 232 233 234 236
238 14 67 146 256 270 286 314 322 342 15 27 68 97 64 19 11 11 358 338 334 339 336 323 311 291 236 202 20 24 19 5 1 351 342 347 351 349 346 342 338 341 344 341 339 341 342 342 346 353 355 353 355 358 359 3 9 0 325 278 240 220 212 209 209 210 212 214 215 215 214 213 214 217 220 222 224 226 226 226 229 231 232 233 234 234 235
129 105 213 236 320 319 318 328 341 32 33 8 39 129 301 30 19 357 349 342 334 333 336 333 327 320 238 189 338 360 0 350 348 342 328 327 332 334 337 336 332 335 340 339 337 339 343 343 344 348 351 352 352 349 348 0 15 12 340 315 303 279 251 228 215 212 213 214 217 219 216 213 213 216 219 222 224 224 224 225 228 230 231 233 234 235 236
117 110 286 329 3 311 269 243 254 318 249 246 231 207 271 38 15 351 352 354 340 337 342 341 335 341 77 114 324 339 343 338 337 333 325 322 324 327 327 329 332 337 341 343 341 342 345 343 342 345 348 352 352 344 340 352 5 4 352 337 328 312 292 268 240 223 218 216 217 219 218 216 216 217 219 222 224 224 223 225 227 229 231 232 234 235 235
113 127 181 218 199 237 238 231 251 294 278 251 51 48 288 348 358 344 351 1 354 351 349 344 346 10 41 341 317 330 330 330 332 329 325 324 326 328 327 328 332 337 341 345 346 348 350 345 344 347 348 351 353 347 343 346 350 354 352 347 343 328 310 295 271 245 231 225 221 218 219 219 220 220 221 222 224 225 224 226 229 231 231 232 233 235 236
179 169 201 217 218 244 241 225 248 269 235 161 62 4 266 297 332 331 355 7 359 357 352 349 2 26 4 310 310 320 320 323 327 328 327 325 324 326 327 329 334 338 342 346 348 350 348 343 343 348 346 346 352 351 344 341 345 352 349 345 345 332 317 313 301 270 244 233 227 221 220 222 223 224 225 225 225 225 225 227 230 232 232 232 233 236 236
205 205 224 260 254 243 224 225 255 270 174 127 148 229 222 261 302 317 12 11 349 350 353 349 345 328 305 297 303 309 314 320 325 327 327 325 324 324 325 328 332 336 339 343 345 347 346 342 342 347 345 342 346 348 342 337 340 343 340 340 346 335 312 307 312 299 263 239 232 225 221 222 224 227 229 229 228 227 227 228 230 231 232 232 234 236 237
199 196 207 279 275 238 188 215 255 249 148 190 214 215 213 229 260 324 14 354 337 340 332 315 297 288 291 297 302 307 315 319 319 321 325 327 327 326 326 328 330 331 334 336 337 341 345 343 341 343 344 343 342 342 338 334 334 336 335 336 341 332 314 299 304 310 293 256 242 233 226 224 225 227 231 233 232 231 230 229 229 230 232 232 233 236 238
143 142 196 252 264 218 165 155 177 175 188 201 196 194 207 202 262 351 337 310 325 329 314 305 300 296 296 297 297 301 307 310 310 314 318 321 323 322 323 324 325 326 328 327 327 334 341 342 340 340 340 339 340 342 337 331 330 330 330 331 329 320 314 308 307 314 314 299 282 265 243 233 228 228 230 231 233 233 231 229 229 230 231 232 232 235 238
144 157 212 230 225 199 182 161 161 198 212 182 146 152 192 205 275 291 282 285 290 294 299 302 303 301 299 296 296 299 302 302 304 307 310 313 316 318 318 320 321 322 323 320 319 326 335 338 337 337 338 336 336 340 337 330 328 327 325 324 317 301 300 301 298 307 314 307 300 300 290 263 247 238 233 231 232 233 232 230 229 230 231 230 230 232 236
180 191 213 221 222 215 204 193 198 214 229 197 153 158 182 202 226 243 268 288 287 283 287 290 292 296 297 298 298 297 297 298 297 296 299 304 308 310 313 316 319 319 317 316 317 318 325 332 333 333 336 335 331 330 330 327 325 324 324 323 313 293 283 285 286 293 296 289 285 285 280 271 265 258 250 243 239 238 236 231 229 229 230 229 228 230 233
261 250 230 214 229 246 239 229 223 213 216 209 174 168 193 210 214 228 251 273 281 285 285 284 283 284 289 295 297 295 295 297 297 295 294 296 301 306 308 312 316 317 314 313 314 313 316 324 329 330 331 330 323 320 323 324 322 319 319 319 312 302 296 296 298 301 296 288 284 283 278 274 274 270 264 256 248 245 242 236 230 229 229 227 227 228 231
259 271 249 217 224 243 241 232 239 235 221 209 183 178 203 209 201 219 241 257 272 278 277 277 280 279 279 286 291 294 294 292 293 296 296 294 296 299 300 304 309 312 311 308 308 308 310 315 322 327 328 326 322 321 322 321 319 317 316 315 312 309 306 305 308 311 304 296 294 291 287 284 281 277 272 263 252 247 244 237 231 228 228 227 225 226 229
196 248 258 243 241 256 248 228 237 247 229 211 202 200 206 206 209 226 236 241 256 273 276 276 279 280 279 277 282 287 289 284 284 289 292 294 294 293 295 299 303 304 304 302 301 301 304 309 315 320 324 324 323 325 327 325 320 317 316 313 310 309 307 306 311 313 305 296 292 288 283 278 269 262 256 247 238 233 233 231 227 225 224 224 224 225 227
264 283 271 258 268 280 266 245 241 239 216 199 207 211 205 211 223 230 233 235 238 253 269 276 279 280 278 274 275 280 282 281 279 279 283 288 291 290 291 294 296 296 295 294 294 294 297 303 308 312 318 321 322 326 329 326 319 317 316 311 305 304 305 306 308 308 300 292 285 280 276 271 264 258 251 242 233 231 232 231 229 227 224 223 224 226 227
253 257 239 205 200 261 263 247 234 224 203 191 210 221 218 225 231 228 235 244 244 247 257 266 271 276 277 274 273 274 275 277 277 276 277 281 285 287 288 289 290 290 288 288 288 289 291 297 301 305 311 316 319 324 326 322 316 314 313 310 305 301 300 300 298 297 294 289 285 279 276 273 271 270 267 261 252 245 243 240 237 234 231 230 230 228 228
232 234 218 182 176 228 246 234 220 213 198 193 218 238 243 245 245 239 244 265 270 265 263 263 263 266 272 272 271 270 271 274 275 274 272 274 278 283 285 286 285 284 283 284 284 282 286 292 296 300 306 311 316 321 322 318 314 312 310 308 304 300 295 291 290 290 289 286 285 282 279 279 278 277 279 280 275 265 255 249 246 242 239 239 239 236 233
238 242 213 177 181 218 226 204 200 208 202 195 216 242 246 248 259 261 259 268 274 276 275 272 269 269 271 272 270 268 269 273 274 273 271 269 270 275 278 278 278 276 276 278 277 277 281 287 292 297 303 307 313 319 319 315 313 312 309 306 303 300 296 292 292 292 288 283 284 284 284 285 285 284 284 286 285 281 272 259 250 245 243 243 244 242 240
226 232 183 168 194 219 208 174 188 219 215 205 218 242 241 242 255 261 260 269 276 278 282 282 278 275 272 270 269 267 268 271 272 272 272 269 266 267 270 271 271 271 271 272 273 273 275 280 287 294 298 302 309 316 317 314 312 309 307 305 302 301 299 296 296 295 290 286 285 285 285 286 286 287 287 284 282 284 281 270 256 247 244 243 244 244 243
221 200 123 134 196 214 153 119 267 245 227 218 222 239 243 247 258 266 270 277 282 283 282 281 281 279 275 270 269 266 264 265 266 267 268 267 264 262 263 265 268 271 271 271 269 269 270 274 281 287 289 295 305 312 313 312 311 306 303 302 299 299 299 298 298 295 290 286 286 285 285 285 284 284 285 283 281 280 277 270 259 249 245 244 244 244 244
219 174 133 145 244 241 194 202 233 246 242 231 224 237 251 257 266 277 281 282 286 287 285 282 281 281 278 274 271 269 268 268 269 268 266 265 264 262 261 263 267 270 271 270 267 265 264 267 271 275 281 290 300 307 307 308 308 305 303 303 301 300 299 298 298 295 290 286 285 285 285 285 283 283 283 284 284 281 273 265 256 250 248 246 245 244 245
212 185 173 195 223 217 195 199 218 240 258 253 243 252 266 271 276 280 282 286 291 291 289 285 282 280 277 275 273 271 270 269 269 269 268 267 267 266 266 267 269 271 271 270 267 262 258 257 261 269 279 288 297 301 301 303 303 302 302 302 301 300 300 298 296 294 291 289 286 284 283 284 284 283 283 283 283 281 277 269 259 253 252 252 249 247 246
215 197 195 208 207 168 143 174 218 239 261 265 262 266 273 278 284 282 281 290 297 295 292 290 285 279 277 278 277 273 268 263 261 262 264 264 264 265 266 267 270 272 272 268 262 257 252 250 256 267 277 285 294 299 300 300 299 298 298 299 298 296 295 295 294 293 292 291 288 285 283 284 284 284 282 280 279 280 280 275 266 259 258 257 254 250 248
226 190 193 210 179 124 141 251 260 265 273 277 280 281 277 277 284 285 287 295 299 297 296 295 289 281 278 277 276 273 268 263 259 260 262 263 263 263 264 265 267 269 269 263 255 249 247 248 255 268 277 285 294 299 298 298 297 295 295 296 295 293 292 292 293 293 292 290 288 285 283 282 283 282 280 278 278 279 279 278 273 267 263 259 254 249 249
218 177 174 175 143 138 194 245 264 276 280 282 285 286 285 285 284 286 293 300 300 299 298 296 291 286 281 277 275 274 271 266 262 261 262 263 262 262 262 261 259 258 261 258 249 242 244 251 259 269 277 287 295 297 296 296 296 294 295 296 295 294 294 294 294 294 292 289 287 285 283 281 280 279 277 276 276 276 277 277 276 272 266 261 255 251 250
173 154 142 127 124 148 232 251 256 265 271 275 277 277 280 282 283 290 299 301 298 298 298 296 294 290 285 279 276 274 270 264 261 261 261 263 263 264 262 259 255 254 254 250 241 238 246 257 265 271 278 287 292 294 294 294 293 293 295 297 297 297 298 298 298 297 294 290 287 286 285 284 282 280 277 274 273 273 273 274 275 274 270 264 257 255 254
155 145 175 202 172 196 255 254 244 249 257 257 258 269 279 283 285 291 297 300 300 302 304 304 302 297 290 283 277 271 264 261 258 257 258 260 261 261 260 259 257 253 243 231 228 237 250 261 269 275 281 285 289 292 292 291 292 294 294 296 298 300 300 301 301 299 297 293 291 292 293 291 287 283 279 276 273 271 269 267 267 270 272 269 265 262 261
172 170 187 191 181 188 221 230 222 227 248 264 268 274 284 291 293 297 302 306 308 311 313 312 309 305 301 296 284 267 254 252 253 253 255 257 259 262 262 257 248 234 217 208 220 238 253 266 276 282 285 286 287 290 289 289 294 297 297 299 302 303 303 304 304 303 302 301 302 305 305 301 295 289 283 279 275 270 264 262 263 265 268 269 269 268 265
177 174 181 183 182 188 195 200 201 200 215 266 283 283 295 304 305 309 313 315 315 317 319 319 319 322 325 324 311 280 250 242 243 248 254 259 262 260 249 229 208 193 184 190 215 246 269 282 285 287 287 287 287 284 283 290 301 302 301 303 305 305 305 307 308 307 308 313 318 323 322 316 309 303 295 287 280 272 263 259 258 258 260 263 266 267 264
170 167 184 196 199 203 204 206 211 208 209 241 272 286 306 315 317 318 318 319 321 325 328 330 333 337 343 348 353 356 356 3 29 29 11 8 350 266 202 178 166 157 152 151 317 314 300 293 294 293 289 286 282 276 275 290 303 304 302 305 309 310 310 311 313 315 321 328 334 339 341 339 337 335 331 321 306 294 281 269 261 257 256 256 256 253 248
184 185 195 204 207 211 214 218 222 223 225 250 285 304 317 323 325 325 325 329 336 338 338 340 342 342 346 356 5 11 16 29 43 48 50 55 58 57 55 50 48 64 72 36 354 337 318 303 299 295 288 283 281 275 277 296 306 301 298 305 315 318 317 319 323 329 336 344 351 355 360 6 13 19 22 21 22 26 22 12 358 331 302 286 264 232 207
195 196 203 214 217 218 225 232 232 228 231 278 319 328 331 332 331 331 333 344 352 350 347 347 349 350 355 3 11 13 11 15 27 39 45 49 52 51 45 33 23 25 27 9 348 336 324 312 305 297 290 291 292 282 280 299 305 296 294 309 324 330 329 331 337 343 347 355 4 13 23 30 36 43 47 48 51 54 55 56 57 57 57 58 59 61 62
177 194 207 216 217 217 224 233 230 224 230 328 342 343 347 347 342 340 345 358 2 360 357 355 357 360 3 7 13 15 12 12 18 26 35 43 48 50 43 30 21 18 12 2 354 346 332 320 311 301 294 297 300 294 290 300 301 298 315 343 353 2 0 356 355 358 5 15 24 34 44 49 52 56 60 63 65 66 65 66 67 66 64 64 63 62 60
167 193 207 206 196 193 204 225 238 229 78 39 19 8 4 358 352 351 357 6 8 8 6 3 4 8 8 6 10 14 14 15 17 19 22 30 39 43 38 27 21 19 13 7 4 356 341 329 319 307 301 305 309 302 298 300 306 34 64 53 47 48 42 31 25 21 23 30 40 49 56 60 62 64 66 69 71 72 72 73 73 73 71 70 68 67 66
194 200 201 191 179 182 194 214 202 96 77 54 34 26 21 13 7 7 11 11 12 13 12 9 11 14 11 9 14 17 15 15 17 20 23 26 26 27 29 21 17 15 13 14 16 9 353 344 334 316 309 318 325 309 290 156 114 100 86 74 67 66 62 56 54 53 50 50 56 62 66 68 69 70 71 71 73 74 76 77 77 76 76 76 75 75 74
208 196 182 167 164 169 177 175 128 103 83 58 41 38 36 29 24 23 22 20 18 17 14 12 15 18 16 14 18 20 17 14 13 17 25 30 26 20 18 18 16 15 14 19 26 26 17 8 358 342 328 331 343 340 102 120 112 101 93 86 78 74 72 71 70 70 70 71 72 72 72 72 72 71 71 73 74 76 78 79 80 80 80 79 79 79 78
209 182 161 153 153 153 157 151 128 109 88 66 56 51 45 41 39 35 32 31 29 26 21 18 18 19 17 16 19 20 18 15 13 11 15 27 30 26 21 19 20 21 22 25 30 32 29 23 15 8 6 15 26 55 97 106 103 98 97 94 86 79 78 79 78 77 77 77 76 76 75 75 75 73 72 73 74 75 77 79 81 82 83 83 82 81 79
205 168 153 149 145 147 155 146 126 113 97 78 69 62 54 51 47 41 40 39 34 29 28 26 23 21 20 19 20 18 15 16 15 11 5 11 24 26 25 26 27 28 30 34 35 33 30 29 28 27 30 39 55 77 88 88 88 93 95 93 87 83 82 80 80 81 81 80 80 79 79 78 78 78 77 77 77 78 79 80 82 84 86 86 86 85 85
184 154 147 143 140 148 161 151 133 124 112 94 81 70 63 60 53 43 40 37 31 29 31 30 27 25 25 23 21 19 17 18 20 17 9 3 8 16 21 27 32 34 35 38 38 36 35 36 39 42 44 51 65 78 82 80 81 85 87 87 87 86 84 82 81 82 83 83 82 81 81 81 81 81 80 80 82 83 84 84 84 85 85 86 87 87 87
158 145 140 137 137 148 157 148 139 132 117 99 87 78 71 68 58 44 39 39 39 41 40 35 29 29 28 25 23 22 20 22 25 25 22 19 19 21 25 30 34 35 37 38 38 38 39 43 46 49 53 59 68 73 74 74 76 78 80 81 82 82 81 81 81 81 82 83 84 83 83 83 83 83 83 83 84 84 85 85 85 84 86 88 90 90 90
146 139 133 132 137 144 147 147 144 135 117 103 100 96 85 78 69 57 53 53 53 50 46 41 37 36 35 32 29 25 21 20 24 27 29 30 30 31 33 36 36 36 37 40 40 40 42 47 50 50 52 57 63 65 65 66 68 72 74 75 76 75 76 78 81 82 83 85 85 86 86 86 85 85 86 86 84 84 86 87 87 87 89 90 90 91 92
141 135 131 134 141 144 148 152 149 135 122 121 126 124 114 98 83 69 63 63 61 56 51 47 44 41 40 40 40 37 33 29 26 24 27 31 34 34 36 39 41 39 39 40 41 41 43 47 50 52 53 56 59 61 62 62 62 64 66 68 70 70 71 72 76 81 83 84 84 85 85 86 86 86 86 86 85 85 88 89 89 89 90 90 89 89 91
137 131 129 135 142 149 159 165 160 142 135 137 137 135 133 122 89 64 50 49 56 58 53 48 46 44 42 44 46 45 44 45 44 35 31 34 38 40 41 43 44 43 42 42 42 42 43 46 49 51 53 54 55 56 59 60 59 58 60 63 65 67 68 70 73 77 81 83 84 84 84 85 86 87 87 87 87 87 88 89 90 91 92 92 90 91 92
130 128 128 132 139 154 171 182 178 160 153 151 149 150 155 150 106 58 29 29 44 56 56 51 47 43 40 42 47 49 49 50 51 48 43 42 43 45 44 44 45 45 46 46 45 44 44 46 47 48 51 53 53 53 55 57 57 55 55 57 59 62 66 68 69 72 75 79 81 83 83 85 86 88 88 89 89 88 88 89 90 91 92 92 90 89 89
131 131 127 126 127 134 151 170 176 166 160 156 154 159 168 166 128 93 54 40 41 41 35 32 32 36 44 50 53 52 49 49 52 52 49 47 47 47 47 47 47 47 48 49 49 48 47 47 47 47 49 51 52 53 54 55 55 54 54 54 56 58 61 64 66 68 70 73 76 80 83 86 88 89 89 90 89 89 89 89 89 89 90 92 92 91 90
137 134 125 120 115 107 103 105 133 159 164 161 156 161 176 174 147 127 90 45 29 15 11 22 36 49 62 69 65 57 53 52 54 53 52 50 48 48 48 48 48 48 48 49 49 49 49 51 52 52 51 52 54 55 56 57 57 54 53 53 55 56 58 61 64 67 70 72 73 75 80 85 89 90 91 92 92 93 93 93 93 92 93 93 93 93 93